Peyton, CO

4:49 AM MST on December 07, 2016 (GMT -0700)
Meadow Lake

Weather History for KFLY - October, 2013

Change the Weather History Date:

Friday, October 18, 2013

  Actual Average (KCOS) Record (KCOS)
Temperature  
Mean Temperature 34 °F 49 °F  
Max Temperature 40 °F 62 °F 82 °F (2009)
Min Temperature 27 °F 35 °F 20 °F (1996)
Degree Days  
Heating Degree Days 32 16  
Month to date heating degree days 242  
Since 1 July heating degree days 432  
Cooling Degree Days 0 0  
Month to date cooling degree days 0  
Year to date cooling degree days 454  
Moisture  
Dew Point 26 °F    
Average Humidity 78    
Maximum Humidity 96    
Minimum Humidity 48    
Precipitation  
Precipitation 0.00 in 0.03 in 1.54 in (1960)
Month to date precipitation 0.51  
Year to date precipitation 15.49  
Snow  
Snow 0.00 in 0.10 in 1.00 in (1999)
Month to date snowfall 1.3  
Since 1 July snowfall 1.5  
Since 1 September snowfall 1.5  
Snow Depth -    
Sea Level Pressure  
Sea Level Pressure 30.12 in    
Wind  
Wind Speed 8 mph (NNE)    
Max Wind Speed 16 mph    
Max Gust Speed 22 mph    
Visibility 8 miles    
Events Snow    
T = Trace of Precipitation, MM = Missing Value Source: NWS Daily Summary

Daily Weather History Graph

Daily Weather History Graph

Search for Another Location

Airport or City:

Trip Planner

Search our weather history database for the weather conditions in past years. The results will help you decide how hot, cold, wet, or windy it might be!

Date:

Astronomy

Oct. 18, 2013 Rise Set
Actual Time 7:11 AM MDT 6:15 PM MDT
Civil Twilight 6:44 AM MDT 6:41 PM MDT
Nautical Twilight 6:13 AM MDT 7:12 PM MDT
Astronomical Twilight 5:42 AM MDT 7:43 PM MDT
Moon 6:06 PM MDT (10/18) 6:49 AM MDT (10/18)
Length of Visible Light 11h 57m
Length of Day
11h 03m
Full, 100% of the Moon is Illuminated
Oct 18
Full
Oct 18
Full
Oct 26
Last Quarter
Nov 3
New
Nov 9
First Quarter

Hourly Weather History & Observations

Time (MDT) Temp. Windchill Dew Point Humidity Pressure Visibility Wind Dir Wind Speed Gust Speed Precip Events Conditions
12:14 AM 33.1 °F 30.0 °F 29.1 °F 85% 30.08 in 10.0 mi ESE 3.5 mph - N/A   Overcast
12:34 AM 32.2 °F 28.9 °F 28.4 °F 86% 30.07 in 10.0 mi SSE 3.5 mph - N/A   Mostly Cloudy
12:54 AM 31.6 °F 26.0 °F 29.1 °F 90% 30.07 in 10.0 mi SSE 5.8 mph - N/A   Mostly Cloudy
1:14 AM 32.2 °F 25.8 °F 30.0 °F 92% 30.06 in 10.0 mi South 6.9 mph - N/A   Overcast
1:34 AM 32.9 °F 27.5 °F 30.6 °F 91% 30.07 in 10.0 mi South 5.8 mph - N/A   Overcast
1:54 AM 33.1 °F 25.5 °F 30.2 °F 89% 30.06 in 10.0 mi South 9.2 mph - N/A   Overcast
2:14 AM 32.9 °F 26.7 °F 29.8 °F 88% 30.06 in 10.0 mi South 6.9 mph - N/A   Overcast
2:34 AM 33.3 °F 26.4 °F 30.2 °F 89% 30.05 in 10.0 mi South 8.1 mph - N/A   Overcast
2:54 AM 33.4 °F 25.4 °F 30.2 °F 88% 30.05 in 10.0 mi South 10.4 mph - N/A   Overcast
3:14 AM 33.4 °F 24.8 °F 29.8 °F 87% 30.05 in 10.0 mi South 11.5 mph - N/A   Overcast
3:34 AM 33.1 °F 23.9 °F 29.8 °F 88% 30.04 in 10.0 mi South 12.7 mph - N/A   Overcast
3:54 AM 32.9 °F 27.5 °F 30.0 °F 89% 30.05 in 10.0 mi South 5.8 mph - N/A   Overcast
4:14 AM 32.7 °F 26.4 °F 29.8 °F 89% 30.06 in 10.0 mi South 6.9 mph - N/A   Overcast
4:34 AM 32.2 °F 25.8 °F 29.8 °F 91% 30.06 in 10.0 mi SSE 6.9 mph - N/A   Overcast
4:54 AM 32.0 °F - 30.0 °F 92% 30.07 in 3.0 mi Calm Calm - N/A Snow Light Snow
5:14 AM 31.8 °F 25.4 °F 30.9 °F 96% 30.08 in 1.2 mi WNW 6.9 mph - N/A Snow Light Snow
5:34 AM 30.0 °F 23.2 °F 26.6 °F 87% 30.08 in 3.0 mi NNW 6.9 mph - N/A Snow Light Snow
5:54 AM 28.9 °F 17.7 °F 25.7 °F 88% 30.09 in 5.0 mi North 15.0 mph 21.9 mph N/A Snow Light Snow
6:14 AM 27.9 °F 16.8 °F 25.7 °F 92% 30.09 in 1.8 mi North 13.8 mph 21.9 mph N/A Snow Light Snow
6:34 AM 27.9 °F 15.9 °F 25.5 °F 91% 30.10 in 5.0 mi NNE 16.1 mph 20.7 mph N/A Snow Light Snow
6:54 AM 27.5 °F 15.9 °F 25.5 °F 92% 30.11 in 4.0 mi NNE 15.0 mph 20.7 mph N/A Snow Light Snow
7:14 AM 27.1 °F 16.9 °F 25.7 °F 94% 30.11 in 1.2 mi NNE 11.5 mph 18.4 mph N/A Snow Light Snow
7:34 AM 27.1 °F 18.2 °F 25.7 °F 94% 30.13 in 1.0 mi NNE 9.2 mph - N/A Snow Light Snow
7:54 AM 27.5 °F - 26.2 °F 95% 30.14 in 1.5 mi North - - N/A Snow Light Snow
8:14 AM 28.2 °F 22.0 °F 26.2 °F 92% 30.16 in 5.0 mi North 5.8 mph - N/A Snow Light Snow
8:34 AM 28.8 °F 23.7 °F 26.6 °F 92% 30.16 in 2.5 mi North 4.6 mph - N/A Snow Light Snow
8:54 AM 29.3 °F 23.2 °F 26.6 °F 90% 30.17 in 5.0 mi North 5.8 mph - N/A Snow Light Snow
9:14 AM 30.2 °F 24.3 °F 27.0 °F 88% 30.18 in 10.0 mi North 5.8 mph - N/A   Overcast
9:34 AM 31.3 °F 23.9 °F 26.6 °F 83% 30.18 in 10.0 mi North 8.1 mph - N/A   Mostly Cloudy
9:54 AM 32.0 °F 25.6 °F 25.7 °F 78% 30.19 in 10.0 mi NNE 6.9 mph - N/A   Mostly Cloudy
10:14 AM 33.3 °F 24.6 °F 25.5 °F 73% 30.18 in 10.0 mi North 11.5 mph 16.1 mph N/A   Scattered Clouds
10:34 AM 34.2 °F 25.2 °F 25.0 °F 69% 30.19 in 10.0 mi North 12.7 mph 17.3 mph N/A   Clear
10:54 AM 35.4 °F 27.8 °F 24.8 °F 65% 30.19 in 10.0 mi North 10.4 mph 17.3 mph N/A   Scattered Clouds
11:14 AM 35.8 °F 27.3 °F 23.5 °F 61% 30.19 in 10.0 mi North 12.7 mph 17.3 mph N/A   Clear
11:34 AM 37.2 °F 30.6 °F 23.0 °F 56% 30.19 in 10.0 mi North 9.2 mph 18.4 mph N/A   Scattered Clouds
11:54 AM 37.6 °F 29.1 °F 19.8 °F 49% 30.19 in 10.0 mi NNE 13.8 mph 19.6 mph N/A   Scattered Clouds
12:14 PM 39.0 °F 31.4 °F 20.8 °F 48% 30.18 in 10.0 mi North 12.7 mph 21.9 mph N/A   Scattered Clouds
12:34 PM 39.2 °F 31.6 °F 22.8 °F 52% 30.18 in 10.0 mi North 12.7 mph 17.3 mph N/A   Scattered Clouds
12:54 PM 39.6 °F 32.1 °F 22.6 °F 51% 30.17 in 10.0 mi North 12.7 mph 18.4 mph N/A   Scattered Clouds
1:14 PM 39.7 °F 32.3 °F 22.8 °F 51% 30.16 in 10.0 mi NNE 12.7 mph 21.9 mph N/A   Scattered Clouds
1:34 PM 40.1 °F 33.2 °F 22.3 °F 49% 30.16 in 10.0 mi North 11.5 mph 17.3 mph N/A   Mostly Cloudy
1:54 PM 37.6 °F 32.3 °F 21.9 °F 53% 30.15 in 10.0 mi North 6.9 mph - N/A   Overcast
2:14 PM 37.4 °F 30.8 °F 23.2 °F 57% 30.15 in 10.0 mi NNE 9.2 mph - N/A   Overcast
2:34 PM 36.0 °F 29.6 °F 24.1 °F 62% 30.15 in 10.0 mi ENE 8.1 mph - N/A   Overcast
2:54 PM 36.1 °F 29.3 °F 23.7 °F 61% 30.14 in 10.0 mi ENE 9.2 mph - N/A   Overcast
3:00 PM 35.8 °F 30.9 °F 24.1 °F 62% 30.15 in 10.0 mi ENE 5.8 mph - N/A   Overcast